Location: Recife
(8.0585°S, 34.8848°W)
Time: 07:36:51
(UTC-03:00)

Courier 1B - Pass Details

Date: 23 April 2026
Orbit: 962 x 1209 km, 28.3° (Epoch: 13 May)

Event Time Altitude Azimuth Distance (km) Brightness Sun altitude
Rises 00:03:02 0° 326° (NW) 3,655 - -78.1°
Reaches altitude 10° 00:06:12 10° 340° (NNW) 2,736 - -77.3°
Maximum altitude 00:11:22 24° 32° (NNE) 1,972 - -76.1°
Drops below altitude 10° 00:16:45 10° 83° (E) 2,866 - -74.9°
Sets 00:20:08 0° 96° (E) 3,870 - -74.1°
